Location: Ostrava
(49.8330°N, 18.2830°E)
Time: 02:10:41
(UTC+02:00)

Transit 2A - All Passes

Search period start: 27 September 2016 00:00
Search period end: 07 October 2016 00:00
Orbit: 593 x 967 km, 66.7° (Epoch: 26 September)

Date Brightness Start Highest point End Pass type
(mag) Time Alt. Az. Time Alt. Az. Time Alt. Az.
27 Sep - 00:59:52 10° SSE 01:04:57 26° ESE 01:10:00 10° NE visible
27 Sep - 02:41:18 10° SW 02:47:42 78° NW 02:54:01 10° NE visible
27 Sep - 04:26:36 10° W 04:31:56 27° NNW 04:37:07 10° NNE visible
27 Sep - 06:13:35 10° NW 06:17:20 16° N 06:20:58 10° NNE daylight
27 Sep - 07:58:30 10° NNW 08:02:57 20° NNE 08:07:08 10° ENE daylight
27 Sep - 09:41:48 10° NNW 09:47:36 53° NE 09:52:50 10° ESE daylight
27 Sep - 11:25:32 10° NW 11:30:37 33° WSW 11:35:13 10° S daylight
28 Sep - 00:26:58 10° SSE 00:31:13 19° ESE 00:35:28 10° ENE visible
28 Sep - 02:07:18 10° SSW 02:13:42 83° SE 02:20:01 10° NE visible
28 Sep - 03:52:01 10° W 03:57:39 32° NW 04:03:09 10° NNE visible
28 Sep - 05:38:57 10° NW 05:42:53 17° N 05:46:40 10° NNE visible
28 Sep - 07:24:24 10° NNW 07:28:33 18° NNE 07:32:29 10° ENE daylight
28 Sep - 09:07:50 10° NNW 09:13:27 42° NE 09:18:33 10° ESE daylight
28 Sep - 10:51:19 10° NW 10:56:48 45° WSW 11:01:43 10° S daylight
28 Sep - 23:54:36 10° SE 23:57:32 14° E 00:00:29 10° ENE visible
29 Sep - 01:33:27 10° SSW 01:39:44 64° ESE 01:45:58 10° NE visible
29 Sep - 03:17:30 10° WSW 03:23:25 38° NW 03:29:12 10° NNE visible
29 Sep - 05:04:15 10° WNW 05:08:27 18° NNW 05:12:31 10° NNE visible
29 Sep - 06:50:15 10° NNW 06:54:07 17° N 06:57:49 10° NE daylight
29 Sep - 08:33:52 10° NNW 08:39:15 34° NE 08:44:11 10° ESE daylight
29 Sep - 10:17:12 10° NW 10:22:57 63° WSW 10:28:02 10° SSE daylight
29 Sep - 12:03:53 10° W 12:04:50 10° W 12:05:46 10° WSW daylight
30 Sep - 00:59:46 10° S 01:05:50 49° ESE 01:11:52 10° NE visible
30 Sep - 02:43:06 10° WSW 02:49:15 47° NW 02:55:15 10° NNE visible
30 Sep - 04:29:31 10° WNW 04:34:02 20° NNW 04:38:25 10° NNE visible
30 Sep - 06:15:59 10° NNW 06:19:40 16° N 06:23:13 10° NE visible
30 Sep - 07:59:53 10° NNW 08:05:00 28° NNE 08:09:42 10° E daylight
30 Sep - 09:43:09 10° NW 09:49:00 84° SW 09:54:12 10° SSE daylight
30 Sep - 11:28:04 10° WNW 11:31:13 15° WSW 11:34:12 10° SW daylight
01 Oct - 00:26:15 10° S 00:31:59 37° ESE 00:37:42 10° NE visible
01 Oct - 02:08:49 10° SW 02:15:07 58° NW 02:21:17 10° NNE visible
01 Oct - 03:54:48 10° WNW 03:59:40 22° NNW 04:04:23 10° NNE visible
01 Oct - 05:41:36 10° NW 05:45:13 16° N 05:48:42 10° NE visible
01 Oct - 07:25:54 10° NNW 07:30:41 24° NNE 07:35:08 10° E daylight
01 Oct - 09:09:08 10° NW 09:15:00 74° NE 09:20:13 10° SE daylight
01 Oct - 10:53:22 10° WNW 10:57:33 22° WSW 11:01:26 10° SSW daylight
01 Oct - 23:52:58 10° SSE 23:58:12 28° ESE 00:03:25 10° NE visible
02 Oct - 01:34:39 10° SW 01:41:03 74° NW 01:47:19 10° NE visible
02 Oct - 03:20:06 10° W 03:25:20 26° NNW 03:30:23 10° NNE visible
02 Oct - 05:07:06 10° NW 05:10:45 16° N 05:14:16 10° NNE visible
02 Oct - 06:51:53 10° NNW 06:56:20 21° NNE 07:00:31 10° ENE daylight
02 Oct - 08:35:08 10° NNW 08:40:56 57° NE 08:46:06 10° SE daylight
02 Oct - 10:18:58 10° NW 10:23:49 30° WSW 10:28:15 10° S daylight
02 Oct - 23:19:58 10° SSE 23:24:28 21° ESE 23:28:55 10° ENE visible
03 Oct - 01:00:37 10° SSW 01:07:01 87° SE 01:13:18 10° NE visible
03 Oct - 02:45:29 10° W 02:51:02 30° NNW 02:56:25 10° NNE visible
03 Oct - 04:32:29 10° NW 04:36:18 16° N 04:39:58 10° NNE visible
03 Oct - 06:17:49 10° NNW 06:21:57 19° NNE 06:25:51 10° ENE visible
03 Oct - 08:01:10 10° NNW 08:06:47 44° NE 08:11:51 10° ESE daylight
03 Oct - 09:44:43 10° NW 09:50:02 41° WSW 09:54:50 10° S daylight
03 Oct - 22:47:26 10° SE 22:50:46 15° ESE 22:54:06 10° ENE night (unlit)
04 Oct - 00:26:43 10° SSW 00:33:03 68° ESE 00:39:17 10° NE visible
04 Oct - 02:10:57 10° WSW 02:16:48 36° NW 02:22:28 10° NNE visible
04 Oct - 03:57:47 10° NW 04:01:52 18° NNW 04:05:47 10° NNE visible
04 Oct - 05:43:40 10° NNW 05:47:32 17° NNE 05:51:12 10° NE visible
04 Oct - 07:27:12 10° NNW 07:32:36 35° NE 07:37:30 10° ESE daylight
04 Oct - 09:10:34 10° NW 09:16:11 57° WSW 09:21:12 10° SSE daylight
04 Oct - 22:16:36 10° ESE 22:17:09 10° E 22:17:42 10° E night (unlit)
04 Oct - 23:52:59 10° SSW 23:59:08 52° ESE 00:05:12 10° NE visible
05 Oct - 01:36:32 10° WSW 01:42:37 44° NW 01:48:31 10° NNE visible
05 Oct - 03:23:03 10° WNW 03:27:27 19° NNW 03:31:41 10° NNE visible
05 Oct - 05:09:26 10° NNW 05:13:05 16° N 05:16:34 10° NE visible
05 Oct - 06:53:14 10° NNW 06:58:21 29° NNE 07:03:03 10° E daylight
05 Oct - 08:36:30 10° NW 08:42:16 78° WSW 08:47:23 10° SSE daylight
05 Oct - 10:21:44 10° WNW 10:24:24 14° WSW 10:26:57 10° SW daylight
05 Oct - 23:19:25 10° S 23:25:16 39° ESE 23:31:02 10° NE visible
06 Oct - 01:02:12 10° SW 01:08:29 55° NW 01:14:33 10° NNE visible
06 Oct - 02:48:19 10° WNW 02:53:04 22° NNW 02:57:38 10° NNE visible
06 Oct - 04:35:05 10° NNW 04:38:38 15° N 04:42:02 10° NE visible
06 Oct - 06:19:15 10° NNW 06:24:03 25° NNE 06:28:30 10° E visible
06 Oct - 08:02:28 10° NW 08:08:17 79° NE 08:13:26 10° SE daylight
06 Oct - 09:46:52 10° WNW 09:50:44 20° WSW 09:54:21 10° SSW daylight
06 Oct - 22:46:04 10° SSE 22:51:27 30° ESE 22:56:47 10° NE visible
